星链-30529 (STARLINK-30529 )

导读

STARLINK-30529是美国太空探索技术公司SpaceX星链星座的一员,于2023年10月9日发射入轨,服务于星链全球卫星互联网项目。星链星座通过部署低轨卫星,为全球提供高速宽带接入服务,覆盖偏远地区、海上以及航空等传统网络难以覆盖的场景。该卫星补充完善了星链低轨卫星网络的规模与覆盖能力,推动全球互联网络布局进一步延伸。

基本信息
目录编号:
58047
目录名称:
STARLINK-30529
国际标识:
2023-156V
轨道中心:
EARTH
卫星名称:
星链-30529
卫星全名:
星链-30529 (STARLINK-30529 )
卫星状态:
在轨 (已飞行1061 天)
发射日期:
2023-10-09 UTC
国别 :
美国 (US)
星等 :
--
轨道信息
数据来源 国际轨道数据 AOE轨道数据
星历时间 2026-09-03T19:47:29+0800
1天前
查看轨道信息
2026-08-31T12:00:00+0800
4天前
查看轨道信息
半长轴 6840.914km 6840.901km
偏心率 0.0000896 0.0001499
轨道倾角 53.161° 53.158°
近地点辐角 71.845° 82.814°
升交点赤经 60.984° 76.528°
平近点角 288.265° 262.303°
近地点 462.164km 461.738km
远地点 463.39km 463.79km
周期 93.849分钟 93.849分钟
每日圈数 15.343752 15.343798
详细信息
固有亮度:
5
最大亮度:
0.3
卫星平台:
Starlink v2.0 mini
覆盖范围:
全球
运营商:
太空探索技术公司
运营商所在国:
美国
制造商(研发单位):
太空探索技术公司
制造商所在国:
美国
使用方式:
暂无
卫星简介
星链(Starlink)计划是由太空探索技术公司(SpaceX)提出的一个巨型低轨卫星互联网星座项目,计划在2019年至2024年间在太空搭建由约1.2万颗卫星组成的“星链”网络,其中1584颗将部署在地球上空550千米处的近地轨道,并从2020年开始工作。该卫星仍在工作。
2D轨道图
3D轨道图
轨道高度分析图
轨道倾角分析图
轨道综合分析图
查看轨道综合分析图
交会数据列表
事件ID 空间交会对象 最接近时刻(TCA) 交会距离 交会风险概率(CRP) 交会风险指数(CRI) 操作
CDM_260905-163905-804706-620321
2026-09-05T
16:39:53+0000
0.496 km
远距离
1.414078E-4 高风险 0.78
CDM_260906-011505-804706-620321
2026-09-06T
01:15:46+0000
1.133 km
极远距离
1.110233E-5 中风险 0.56
CDM_260906-133305-804706-170721
2026-09-06T
13:33:41+0000
1.318 km
极远距离
6.100713E-6 低风险 0.51
CDM_260905-150605-804706-620321
2026-09-05T
15:06:06+0000
2.758 km
极远距离
1.027314E-6 低风险 0.35
CDM_260906-024905-804706-620321
2026-09-06T
02:49:33+0000
2.944 km
极远距离
9.462285E-7 极低风险 0.35